Weather observations for the past three days for
Cheboygan, Cheboygan County Airport
Metric (Imperial)
Date Time (edt) Wind (kph) Vis. (km) Weather Sky Cond. Temperature (ºC) Relative Humidity Wind Chill (°C) Heat Index (°C) Pressure Precipitation (cm)
Air Dwpt 6 hour altimeter (cm) sea level (mb) 1 hr 3 hr 6 hr
Max. Min.
05 23:36 NW 7 16.09 Overcast SCT038 OVC070 3 -4 60% 1 75.77 0.0
05 23:15 N 13 16.09 Overcast FEW036 OVC070 3 -4 60% 0 75.77 0.0
05 22:55 N 19 16.09 Overcast FEW034 OVC070 4 -3 61% 0 75.77 0.0
05 22:35 N 15 16.09 Overcast FEW034 OVC070 4 -2 65% 1 75.74 0.0
05 22:15 N 11 16.09 Overcast OVC070 4 -1 70% 2 75.72 0.0
05 21:55 N 9 16.09 Overcast OVC070 4 -1 70% 2 75.72 0.0
05 21:35 N 13 16.09 Overcast SCT026 OVC070 4 -1 70% 1 75.69 0.0
05 21:16 N 19 16.09 Overcast SCT026 OVC070 4 -1 70% 0 75.67 0.0
05 20:55 N 15 16.09 Mostly Cloudy FEW024 BKN070 4 -1 70% 1 75.64 0.0
05 20:35 N 13 16.09 Fair CLR 4 -1 70% 1 75.64 0.0
05 20:15 N 17 16.09 Fair CLR 5 0 70% 2 75.64 0.0
05 19:55 N 15 16.09 Fair CLR 5 0 12.6 5.6 70% 2 75.62 0.0
05 19:35 N 19 16.09 Fair CLR 6 0 66% 3 75.59 0.0
05 19:15 N 19 16.09 Fair CLR 6 0 66% 3 75.59 0.0
05 18:56 N 20 G 31 16.09 Fair CLR 7 1 66% 4 75.57 0.0
05 18:35 N 22 G 30 16.09 Fair CLR 9 -1 50% 6 75.54 0.0
05 18:15 NW 20 16.09 Fair CLR 9 0 54% 6 75.54 0.0
05 17:55 N 22 16.09 A Few Clouds FEW060 10 0 50% 7 75.49 0.0
05 17:35 NW 26 G 41 16.09 Partly Cloudy SCT060 11 -3 38% 75.49 0.0
05 17:15 W 24 G 44 16.09 Partly Cloudy SCT060 11 -5 32% 75.49 0.0
05 16:55 W 37 G 44 16.09 Mostly Cloudy and Breezy BKN060 12 -5 30% 75.46 0.0
05 16:36 W 26 G 39 16.09 Mostly Cloudy BKN060 12 -4 33% 75.46 0.0
05 16:15 W 26 G 37 16.09 Partly Cloudy SCT060 12 -4 33% 75.44 0.0
05 15:55 W 37 G 46 16.09 Partly Cloudy and Breezy SCT060 12 -4 33% 75.44 0.0
05 15:35 W 24 G 44 16.09 A Few Clouds FEW060 12 -4 33% 75.44 0.0
05 15:15 W 33 G 43 16.09 A Few Clouds and Breezy FEW060 12 -5 30% 75.44 0.0
05 14:55 W 37 G 44 16.09 A Few Clouds and Breezy FEW060 11 -5 32% 75.41 0.0
05 14:35 W 26 G 52 16.09 Partly Cloudy SCT060 12 -4 33% 75.41 0.0
05 14:16 W 35 G 44 16.09 Partly Cloudy and Breezy SCT060 11 -4 35% 75.39 0.0
05 13:55 W 33 G 46 16.09 Mostly Cloudy and Breezy BKN060 12 -3 11.9 5.2 35% 75.39 0.0
05 13:35 W 26 G 44 16.09 Partly Cloudy SCT060 11 -3 38% 75.36 0.0
05 13:15 W 39 G 50 16.09 Fair and Breezy CLR 11 -3 38% 75.39 0.0
05 12:55 NW 35 G 50 16.09 A Few Clouds and Breezy FEW055 FEW065 FEW080 10 -3 40% 7 75.39 0.0
05 12:35 W 35 G 44 16.09 Partly Cloudy and Breezy SCT048 SCT055 SCT080 10 -2 43% 7 75.39 0.0
05 12:15 NW 30 G 46 16.09 Mostly Cloudy BKN046 BKN055 BKN080 11 -2 41% 75.39 0.0
05 11:56 W 28 G 41 16.09 Mostly Cloudy BKN044 10 -2 43% 7 75.39 0.0
05 11:35 W 22 G 30 16.09 Mostly Cloudy BKN042 BKN048 9 -1 50% 6 75.39 0.0
05 11:15 W 30 G 39 16.09 Partly Cloudy SCT040 SCT045 SCT075 9 -2 46% 6 75.36 0.0
05 10:55 W 22 16.09 Mostly Cloudy BKN075 8 -2 50% 5 75.36 0.0
05 10:35 W 19 G 31 16.09 Overcast FEW034 OVC075 8 -2 50% 5 75.34 0.0
05 10:15 W 19 16.09 Overcast OVC075 7 -1 57% 4 75.34 0.0
05 09:55 W 20 G 28 16.09 Overcast OVC075 7 -1 57% 4 75.31 0.0
05 09:36 W 28 G 39 16.09 Overcast OVC075 6 -1 61% 2 75.29 0.0
05 09:15 NW 28 16.09 Overcast OVC075 6 -1 61% 2 75.23 0.0
05 08:55 NW 20 16.09 Overcast SCT027 OVC075 6 -1 61% 3 75.26 0.0
05 08:35 W 19 16.09 Overcast BKN027 OVC075 6 0 66% 3 75.23 0.0
05 08:15 W 19 16.09 Overcast OVC075 6 0 66% 3 75.23 0.0
05 07:55 NW 17 16.09 Overcast OVC075 6 0 8 3 66% 3 75.21 0.0
05 07:35 NW 9 16.09 Overcast OVC075 5 0 70% 3 75.21 0.0
05 07:16 W 9 16.09 Mostly Cloudy BKN075 5 -1 66% 3 75.18 0.0
05 06:55 W 7 16.09 Partly Cloudy SCT075 3 -1 75% 1 75.16 0.0
05 06:35 W 9 16.09 Fair CLR 3 -1 75% 1 75.13 0.0
05 06:15 W 9 16.09 Fair CLR 4 -1 70% 2 75.11 0.0
05 05:55 W 11 16.09 Fair CLR 3 -1 75% 0 75.08 0.0
05 05:35 NW 11 16.09 A Few Clouds FEW065 FEW080 4 -1 70% 2 75.08 0.0
05 05:15 W 11 16.09 Partly Cloudy SCT065 SCT080 5 -1 66% 3 75.08 0.0
05 04:56 NW 13 16.09 Overcast OVC065 6 0 66% 4 75.08 0.0
05 04:35 NW 15 16.09 Overcast OVC065 6 -1 61% 3 75.06 0.0
05 04:15 NW 19 G 28 16.09 Overcast OVC065 6 -1 61% 3 75.06 0.0
05 03:55 NW 24 G 31 16.09 Overcast OVC065 7 -1 57% 4 75.03 0.0
05 03:35 NW 30 G 37 16.09 Overcast OVC065 7 -1 57% 3 75.03 0.0
05 03:15 NW 17 16.09 Overcast OVC065 7 0 61% 4 75.03 0.0
05 02:55 NW 17 16.09 Overcast OVC065 8 0 57% 6 75.01 0.0
05 02:36 NW 17 16.09 Overcast OVC055 8 0 57% 6 75.01 0.0
05 02:15 NW 20 G 31 16.09 Overcast OVC055 8 -1 53% 5 75.01 0.0
05 01:55 W 22 16.09 Overcast OVC055 8 1 9.7 6.9 62% 5 74.98 0.0
05 01:35 NW 13 16.09 Overcast OVC055 8 0 57% 6 74.96 0.0
05 01:15 NW 13 16.09 Overcast OVC055 8 1 62% 6 74.96 0.0
05 00:55 NW 13 16.09 Overcast OVC055 8 1 62% 6 74.93 0.0
05 00:35 NW 17 16.09 Overcast OVC055 8 1 62% 6 74.9 0.0
05 00:16 NW 15 16.09 Mostly Cloudy BKN055 BKN090 8 2 66% 6 74.9 0.0
04 23:55 NW 13 16.09 Partly Cloudy FEW055 SCT090 SCT120 7 2 71% 5 74.9 0.0
04 23:35 N 13 16.09 Partly Cloudy SCT055 SCT120 7 2 71% 5 74.88 0.0
04 23:15 N 7 16.09 Mostly Cloudy BKN065 7 3 76% 6 74.85 0.0
04 22:55 NW 6 16.09 Overcast BKN050 OVC065 8 3 71% 74.85 0.0
04 22:35 N 9 16.09 Overcast BKN050 OVC075 8 4 76% 7 74.85 0.0
04 22:15 N 6 16.09 Light Rain BKN047 BKN065 OVC085 8 5 82% 74.83 0.0
04 21:56 NE 7 16.09 Overcast BKN043 OVC065 8 5 82% 7 74.83 0.0
04 21:35 NE 6 16.09 Overcast BKN041 BKN065 OVC080 9 5 76% 74.8 0.0
04 21:15 NE 11 16.09 Overcast SCT039 OVC075 9 5 76% 8 74.78 0.0
04 20:55 NE 13 16.09 Overcast FEW065 OVC085 9 6 82% 7 74.75 0.0
04 20:35 E 7 14.48 Light Rain SCT050 OVC065 9 6 82% 8 74.75 0.0
04 20:15 NE 4 16.09 Light Rain BKN048 OVC055 10 6 76% 74.75 0.0
04 19:55 Vrbl 6 12.87 Light Rain BKN050 OVC065 9 6 24.5 9.3 82% 74.73 0.0
04 19:36 NE 9 16.09 Light Rain OVC065 10 6 76% 9 74.7 0.0
04 19:15 N 13 16.09 Light Rain OVC075 10 6 76% 8 74.65 0.0
04 18:55 NW 20 16.09 Light Rain BKN075 OVC085 11 5 67% 74.6 0.0
04 18:35 NW 19 16.09 Light Rain OVC080 12 6 67% 74.57 0.0
04 18:15 NW 22 G 35 16.09 Light Rain OVC080 12 5 63% 74.52 0.0
04 17:55 NW 28 G 39 16.09 Overcast OVC080 14 3 48% 74.47 0.0
04 17:35 NW 24 G 43 16.09 Overcast BKN080 OVC110 18 2 34% 74.42 0.0
04 17:16 SW 33 G 54 16.09 Mostly Cloudy and Breezy SCT090 BKN110 22 3 29% 74.4 0.0
04 16:55 SW 24 G 52 16.09 Mostly Cloudy BKN090 BKN110 23 3 27% 74.4 0.0
04 16:35 SW 31 G 44 16.09 Overcast OVC090 22 2 27% 74.4 0.0
04 16:15 SW 35 G 50 16.09 Mostly Cloudy and Breezy BKN100 BKN120 21 2 29% 74.4 0.0
04 15:35 SW 31 G 46 14.48 Light Rain FEW031 FEW055 BKN100 20 4 35% 74.4 0.0
04 15:15 SW 30 G 56 16.09 Mostly Cloudy BKN100 22 1 25% 74.4 0.0
04 14:56 SW 41 G 69 16.09 Mostly Cloudy and Breezy FEW055 FEW075 BKN110 23 1 23% 74.4 0.0
04 14:35 SW 46 G 59 16.09 A Few Clouds and Windy FEW095 FEW120 24 1 22% 25 74.4 0.0
04 14:15 SW 35 G 65 16.09 Fair and Breezy CLR 23 1 23% 74.37 0.0
04 13:55 SW 37 G 61 16.09 Fair and Breezy CLR 23 1 23.3 6.8 23% 74.4 0.0
04 13:35 SW 44 G 70 16.09 Fair and Windy CLR 23 2 25% 74.42 0.0
04 13:15 SW 44 G 59 16.09 Fair and Windy CLR 22 2 27% 74.47 0.0
04 12:55 SW 35 G 56 16.09 Fair and Breezy CLR 21 2 29% 74.5 0.0
04 12:36 SW 35 G 50 16.09 Fair and Breezy CLR 21 2 29% 74.52 0.0
04 12:15 SW 35 G 52 16.09 Fair and Breezy CLR 21 2 29% 74.57 0.0
04 11:55 SW 20 G 44 16.09 Fair CLR 20 3 33% 74.6 0.0
04 11:35 SW 30 G 39 16.09 Fair CLR 19 4 37% 74.63 0.0
04 11:15 SW 22 G 35 16.09 Fair CLR 18 4 40% 74.68 0.0
04 10:55 S 17 16.09 Fair CLR 17 6 49% 74.68 0.0
04 10:35 S 13 16.09 Fair CLR 15 7 59% 74.7 0.0
04 10:15 S 13 16.09 Fair CLR 14 7 63% 74.73 0.0
04 09:56 S 13 16.09 Fair CLR 12 6 67% 74.75 0.0
04 09:35 S 11 16.09 Fair CLR 11 6 72% 74.78 0.0
04 09:15 S 15 16.09 Fair CLR 10 7 82% 8 74.8 0.0
04 08:55 S 13 16.09 Fair CLR 9 6 82% 7 74.83 0.0
04 08:35 S 13 16.09 Fair CLR 8 6 87% 6 74.85 0.0
04 08:15 S 11 16.09 Fair CLR 7 6 93% 5 74.85 0.0
04 07:55 S 13 16.09 Fair CLR 7 5 6.8 0 87% 5 74.88 0.0
04 07:36 S 15 16.09 Fair CLR 6 5 93% 3 74.88 0.0
04 07:15 S 11 16.09 Fair CLR 6 5 93% 4 74.9 0.0
04 06:55 S 15 16.09 Fair CLR 5 4 93% 2 74.9 0.0
04 06:35 S 15 16.09 Fair CLR 5 4 93% 2 74.9 0.0
04 06:15 S 13 16.09 Fair CLR 5 4 93% 2 74.93 0.0
04 05:55 S 11 16.09 Fair CLR 5 4 93% 3 74.93 0.0
04 05:35 S 9 16.09 Fair CLR 4 4 100% 2 74.96 0.0
04 05:16 S 11 16.09 Fair CLR 5 4 93% 3 74.98 0.0
04 04:55 S 11 16.09 Fair CLR 5 4 93% 3 75.01 0.0
04 04:35 S 6 9.66 Fog/Mist CLR 1 0 93% 75.01 0.0
04 04:15 SW 4 6.44 Fog/Mist CLR 0 0 100% 75.03 0.0
04 03:55 SW 4 1.21 Fog/Mist VV005 1 0 93% 75.06 0.0
04 03:35 SW 4 0.80 Fog VV005 2 1 93% 75.06 0.0
04 03:15 SW 4 0.40 Fog VV002 2 2 100% 75.08 0.0
04 02:56 SE 6 1.61 Fog/Mist CLR 2 1 93% 75.11 0.0
04 02:35 SW 2 0.40 Fog VV002 2 2 100% 75.13 0.0
04 02:15 SE 2 0.24 Fog VV000 3 2 93% 75.16 0.0
04 01:55 N 4 0.40 Fog VV002 3 2 7.4 2.5 93% 75.16 0.0
04 01:35 N 13 0.80 Fog VV005 4 3 93% 1 75.16 0.0
04 01:15 SW 7 6.44 Fog/Mist CLR 5 4 93% 4 75.16 0.0
04 00:55 SW 11 6.44 Fog/Mist FEW001 5 4 93% 3 75.16 0.0
04 00:36 S 9 0.40 Fog VV002 4 4 100% 2 75.16 0.0
04 00:15 Calm 0.24 Fog VV000 3 3 100% 75.18 0.0
03 23:55 S 6 0.40 Fog BKN065 BKN085 4 3 93% 75.18 0.0
03 23:35 S 4 1.61 Fog/Mist BKN065 OVC085 5 4 93% 75.21 0.0
03 23:15 W 2 8.05 Fog/Mist OVC055 6 5 93% 75.23 0.0
03 22:55 NW 4 8.05 Fog/Mist SCT002 OVC050 5 5 100% 75.23 0.0
03 22:35 W 6 1.21 Fog/Mist BKN002 OVC005 5 4 93% 75.23 0.0
03 22:16 NW 4 1.21 Fog/Mist BKN002 BKN060 OVC080 5 4 93% 75.23 0.0
03 21:55 N 6 4.02 Fog/Mist BKN060 BKN090 BKN110 6 5 93% 75.23 0.0
03 21:35 N 9 0.80 Fog OVC060 6 5 93% 4 75.21 0.0
03 21:15 E 4 1.21 Fog/Mist BKN060 OVC100 6 5 93% 75.21 0.0
03 20:55 SE 2 9.66 Fog/Mist BKN095 7 6 93% 75.21 0.0
03 20:35 S 7 9.66 Fog/Mist FEW075 BKN095 OVC110 7 6 93% 6 75.18 0.0
03 20:15 S 7 11.27 Fog/Mist SCT040 BKN065 OVC120 7 6 93% 6 75.21 0.0
03 19:56 E 6 12.87 Overcast SCT040 BKN050 OVC060 7 6 93% 75.23 0.0
03 19:35 E 11 11.27 Light Rain SCT038 BKN045 OVC055 7 6 93% 5 75.23 0.0
03 19:15 NE 6 4.83 Rain Fog/Mist FEW029 BKN039 OVC046 7 5 87% 75.26 0.0
03 18:55 N 20 6.44 Rain Fog/Mist SCT030 BKN036 OVC055 7 5 87% 4 75.29 0.0 0.13
03 18:35 N 17 16.09 Light Rain BKN055 OVC065 8 4 76% 6 75.23 0.0
03 18:15 NW 11 G 30 16.09 Overcast OVC065 15 5 51% 75.16 0.0
03 17:55 SW 26 G 33 16.09 Overcast FEW050 OVC065 15 5 51% 75.16 0.0
03 17:36 SW 19 G 30 16.09 Overcast SCT050 OVC065 15 5 51% 75.16 0.0
03 17:15 Vrbl 11 16.09 Overcast BKN050 BKN065 OVC090 11 4 62% 75.18 0.0
03 16:55 Vrbl 7 16.09 Overcast BKN050 OVC080 12 4 58% 75.21 0.0
03 16:35 NE 11 16.09 Overcast BKN050 OVC080 10 5 71% 9 75.21 0.0
03 16:15 E 11 16.09 Overcast BKN055 OVC080 11 5 67% 75.23 0.0
03 15:55 NE 17 16.09 Overcast OVC060 10 5 71% 8 75.26 0.0
03 15:35 NE 11 16.09 Overcast BKN048 OVC060 9 5 76% 8 75.29 0.0
03 15:16 NE 15 16.09 Overcast OVC045 9 4 71% 7 75.31 0.0
03 14:55 NE 13 16.09 Overcast SCT040 BKN070 OVC090 11 5 67% 75.34 0.0
03 14:35 W 13 16.09 Overcast BKN080 BKN090 OVC110 13 5 59% 75.34 0.0
03 14:15 W 15 16.09 Mostly Cloudy SCT090 BKN110 13 6 63% 75.36 0.0
03 13:55 W 15 16.09 Mostly Cloudy FEW028 BKN050 BKN110 12 5 13.1 3.4 63% 75.36 0.0
03 13:35 Vrbl 11 16.09 Mostly Cloudy BKN050 BKN070 11 7 77% 75.39 0.0
03 13:15 S 9 16.09 Mostly Cloudy SCT045 SCT050 BKN070 9 6 82% 8 75.41 0.0
03 12:56 Vrbl 6 16.09 Overcast OVC045 7 5 87% 75.44 0.0
03 12:35 S 6 16.09 Light Rain OVC047 6 4 87% 75.46 0.0
03 12:15 S 7 16.09 Light Rain OVC049 5 3 87% 4 75.46 0.0
03 11:55 Vrbl 4 16.09 Light Rain OVC049 5 3 87% 75.49 0.0
03 11:35 E 6 16.09 Light Rain BKN047 OVC055 5 2 81% 75.49 0.0
03 11:15 E 6 16.09 Light Rain OVC045 4 2 87% 75.51 0.0
03 10:55 E 4 16.09 Light Rain OVC045 4 1 81% 75.54 0.0 0.03
03 10:36 E 6 16.09 Light Rain OVC045 4 1 81% 75.54 0.0
03 10:15 E 6 16.09 Light Rain FEW042 OVC050 4 1 81% 75.54 0.0
03 09:55 E 6 16.09 Light Rain SCT042 BKN048 OVC055 4 1 81% 75.54 0.0
03 09:35 E 4 8.05 Light Rain Haze OVC042 4 0 75% 75.57 0.0
03 09:15 NE 6 16.09 Light Rain BKN044 OVC050 4 -1 70% 75.57 0.0
03 08:55 SE 7 16.09 Light Rain FEW044 OVC050 3 -1 75% 1 75.54 0.0
03 08:35 S 7 16.09 Light Rain FEW045 OVC050 4 -2 65% 2 75.59 0.0
03 08:15 S 9 16.09 Light Rain BKN055 OVC070 4 -2 65% 2 75.59 0.0
03 07:55 S 7 16.09 Overcast BKN075 OVC090 4 -3 3.7 -2.7 61% 2 75.59 0.0
03 07:35 S 6 16.09 Overcast OVC100 3 -2 70% 75.59 0.0
03 07:15 S 4 16.09 Overcast FEW075 OVC100 2 -3 70% 75.59 0.0
03 06:55 S 7 16.09 Overcast SCT085 OVC110 2 -4 65% 0 75.62 0.0
03 06:35 S 6 16.09 Overcast OVC095 2 -3 70% 75.62 0.0
03 06:15 S 7 16.09 Overcast OVC085 1 -3 75% -1 75.64 0.0
03 05:56 S 7 16.09 Mostly Cloudy BKN085 BKN120 0 -3 80% -2 75.64 0.0
03 05:36 S 6 16.09 Partly Cloudy SCT095 SCT120 1 -3 75% 75.67 0.0
03 05:15 S 7 16.09 Mostly Cloudy BKN110 1 -3 75% -1 75.69 0.0
03 04:55 S 9 16.09 A Few Clouds FEW110 1 -3 75% -2 75.69 0.0
03 04:35 S 7 16.09 A Few Clouds FEW110 -1 -4 80% -3 75.72 0.0
03 04:15 S 6 16.09 Fair CLR 1 -3 75% 75.74 0.0
03 03:55 S 6 16.09 Fair CLR -2 -5 80% 75.77 0.0
03 03:35 SW 2 16.09 Fair CLR -2 -5 80% 75.79 0.0
03 03:16 Calm 16.09 Fair CLR -2 -5 80% 75.82 0.0
03 02:55 S 2 16.09 Fair CLR -1 -5 75% 75.84 0.0
03 02:35 S 4 16.09 Fair CLR -1 -5 75% 75.87 0.0
03 02:15 SW 4 16.09 Fair CLR -1 -6 69% 75.87 0.0
03 01:55 W 6 16.09 Fair CLR -2 -5 8.8 -2.8 80% 75.9 0.0
03 01:35 NW 4 16.09 Fair CLR -2 -5 80% 75.9 0.0
03 01:15 W 4 16.09 Fair CLR -2 -5 80% 75.9 0.0
03 00:56 S 4 16.09 Fair CLR 0 -5 69% 75.92 0.0
03 00:35 S 6 16.09 Fair CLR 0 -5 69% 75.92 0.0
03 00:15 S 2 16.09 Fair CLR -1 -6 69% 75.95 0.0
02 23:55 S 6 16.09 Fair CLR 2 -7 52% 75.95 0.0
Date Time (edt) Wind (kph) Vis. (km) Weather Sky Cond. Air Dwpt Max. Min. Relative Humidity Wind Chill (°C) Heat Index (°C) altimeter (cm) sea level (mb) 1 hr 3 hr 6 hr
6 hour
Temperature (ºC) Pressure Precipitation (cm)